Theta_e
319 319 319 319 319 320 320 320 321 321 321 321 321 321 321 321 321 316 307 309 313 332 348 340 331 322 324 325 332 335 319 311 318 320 322 330 326 334 339 333 336 338 334 336 342
319 319 318 319 319 319 319 320 320 320 320 320 320 320 320 321 313 309 319 326 329 340 316 322 314 313 309 314 322 324 314 317 326 328 326 329 327 329 332 331 332 333 336 339 342
318 318 318 318 319 319 319 319 319 319 319 319 319 319 320 319 307 314 331 332 334 337 312 313 313 315 308 313 316 320 316 325 329 330 330 327 326 334 332 327 330 329 333 337 339
317 317 318 318 318 318 318 318 318 318 318 319 321 320 320 311 299 318 339 337 343 329 312 307 305 305 308 310 316 311 319 328 329 332 328 327 332 330 332 333 338 336 336 336 336
317 317 317 317 317 317 317 317 317 317 318 321 323 319 313 303 307 327 339 340 333 312 309 305 302 302 304 309 314 312 316 326 331 331 330 334 329 328 333 338 341 338 337 335 335
317 316 316 316 317 317 316 316 316 316 317 320 323 321 305 294 311 335 332 329 319 308 306 306 305 307 307 311 311 316 316 316 329 328 330 329 330 331 333 340 338 336 334 335 334
316 316 316 316 316 316 316 315 315 316 317 319 324 318 307 302 323 330 328 318 317 308 305 306 309 312 313 312 316 316 311 313 325 328 326 333 323 324 335 338 337 336 335 336 336
315 315 315 315 315 315 315 314 315 316 318 320 324 313 304 318 317 326 323 318 316 308 307 308 311 310 311 315 311 304 301 295 317 329 331 329 316 329 335 335 333 334 335 335 336
315 315 315 315 315 315 314 314 316 318 320 324 314 308 307 324 310 311 323 311 313 309 307 315 311 305 307 304 298 299 296 297 308 328 328 325 318 328 335 333 331 332 333 333 334
315 315 315 315 314 313 313 313 315 319 321 323 319 303 307 305 307 309 311 314 317 313 309 306 303 300 301 298 292 295 295 293 296 321 326 321 320 326 331 333 330 331 331 332 333
315 315 314 314 313 312 308 303 298 298 311 304 307 307 311 307 307 306 310 311 310 306 299 302 300 297 302 303 302 300 297 296 301 304 309 320 319 324 327 330 329 330 329 331 332
315 314 314 313 312 311 306 300 299 302 295 305 310 312 314 309 299 304 306 305 306 300 303 301 297 304 307 306 303 300 298 297 301 303 299 310 318 322 326 327 330 329 330 331 331
314 314 313 312 311 306 302 302 307 302 292 298 301 301 302 303 299 302 304 302 305 302 302 299 304 310 307 303 302 297 295 297 297 302 321 318 317 319 323 328 331 328 332 333 332
314 314 312 310 303 301 304 306 308 300 288 295 295 301 300 299 299 310 308 305 303 303 303 301 307 306 302 303 302 293 302 302 300 294 290 307 298 314 321 322 326 329 327 332 333
314 313 311 309 300 302 307 307 304 300 282 299 296 303 297 296 299 299 305 302 298 300 298 298 299 301 299 301 304 300 304 300 298 292 290 292 291 299 319 317 320 326 329 331 334
313 312 310 305 300 305 307 304 300 288 284 293 297 294 294 294 297 302 301 302 302 298 296 297 302 300 300 303 304 305 299 296 292 290 285 289 289 291 311 317 320 324 326 332 332
311 309 308 308 301 304 303 300 288 284 296 294 291 292 292 290 294 297 295 293 290 287 286 293 294 297 299 295 299 297 291 286 285 284 284 287 289 291 305 317 322 322 324 329 334
309 307 307 308 303 304 301 294 285 293 291 297 297 294 291 292 293 294 292 289 294 290 286 285 286 293 299 293 290 292 291 287 282 282 285 289 288 295 311 314 318 320 325 328 330
307 303 303 306 308 302 297 287 285 290 295 295 295 292 291 295 293 293 289 289 293 291 286 284 286 296 298 298 295 292 288 292 287 285 286 288 292 301 313 314 317 318 321 324 327
302 303 304 309 306 300 293 289 290 296 297 296 290 293 288 291 291 289 289 293 294 295 290 288 284 291 296 297 297 292 293 288 287 283 282 287 289 296 308 311 316 320 322 323 326
303 299 305 304 304 296 288 288 293 297 299 294 291 290 289 289 289 287 288 293 296 295 292 287 286 288 292 290 289 289 287 286 287 287 284 284 292 307 311 312 314 317 322 322 326
301 295 307 304 295 289 289 292 298 295 297 295 294 292 290 291 288 288 288 292 298 294 289 288 284 282 285 292 295 293 287 285 283 283 285 286 292 309 312 313 315 315 317 321 325
299 298 305 302 289 288 291 295 295 295 294 294 292 293 292 288 286 290 292 297 297 293 287 289 281 278 281 286 290 287 290 286 285 283 282 283 289 311 312 313 314 313 316 318 322
296 292 296 296 291 291 289 290 291 298 295 295 293 292 290 287 288 287 289 296 298 298 304 293 280 279 277 280 285 286 289 290 285 282 283 285 287 304 308 309 313 315 316 317 318
296 292 293 289 291 291 291 292 292 291 295 294 292 292 288 284 285 286 289 290 294 297 293 287 281 283 283 287 289 288 288 289 286 286 283 288 297 300 307 309 311 316 318 316 316
296 295 294 289 290 290 290 289 292 293 292 289 289 293 290 286 286 285 287 286 285 290 288 287 283 283 281 288 287 285 290 291 292 295 292 294 295 301 308 307 307 309 316 315 315
302 301 295 293 289 288 287 290 293 293 295 295 292 289 289 291 293 291 291 290 288 286 284 285 283 280 277 285 283 281 287 293 295 295 296 292 297 300 304 302 303 305 307 313 314
Wind_Speed
18 18 18 18 17 17 18 18 17 16 15 14 13 11 9 9 8 2 7 11 9 9 12 9 3 3 4 3 4 3 2 3 3 5 7 6 1 6 11 12 4 2 9 17 19
18 18 18 18 18 17 17 18 17 16 15 14 13 10 8 7 2 6 11 11 11 10 8 10 7 7 2 4 4 4 3 5 2 5 10 12 5 5 5 4 8 13 21 19 19
18 19 19 19 18 18 17 17 17 17 15 12 11 9 6 2 3 7 10 14 14 10 4 6 6 6 2 4 5 6 5 5 2 7 17 15 11 4 2 4 4 21 24 22 20
19 19 19 19 19 18 18 17 16 16 14 10 9 5 4 2 2 1 15 16 12 9 5 6 4 6 4 6 5 3 6 5 6 9 9 11 13 10 9 3 3 16 18 22 22
20 20 20 20 20 19 18 17 16 15 12 11 5 3 1 1 9 3 18 13 7 7 7 6 6 6 5 4 3 4 6 8 8 11 6 9 6 5 6 4 2 18 18 18 17
20 20 20 20 20 19 19 18 16 14 12 10 3 4 1 3 2 11 13 10 6 6 6 6 8 6 2 4 3 4 6 7 12 10 7 8 7 6 7 7 10 17 19 17 16
21 21 21 20 21 20 20 20 18 14 12 10 4 4 1 10 3 9 12 7 8 9 7 4 2 3 0 5 3 8 7 4 8 10 7 9 2 6 11 11 14 18 16 16 16
23 23 22 21 21 22 21 21 20 15 10 8 7 2 8 5 4 6 5 3 4 4 3 8 3 1 2 4 5 2 4 3 3 10 8 6 4 11 13 16 14 17 18 17 17
22 23 24 23 22 20 20 23 18 5 7 8 4 2 9 8 4 7 9 5 7 4 4 5 7 5 1 1 4 7 1 1 2 9 5 9 4 6 7 15 15 15 19 18 16
21 22 23 23 22 20 21 17 2 10 4 5 4 2 5 3 3 6 7 7 5 7 4 3 3 2 3 4 3 1 2 2 2 7 3 8 8 4 6 8 17 16 16 18 19
21 22 23 24 23 18 10 3 4 3 2 6 3 4 6 7 4 3 5 6 5 5 5 3 4 4 6 6 4 3 3 2 4 7 6 15 9 11 11 4 15 15 18 17 21
23 21 23 24 23 21 4 3 1 3 7 8 7 7 7 3 4 2 4 4 5 4 4 6 3 8 1 4 4 2 1 5 7 4 7 3 4 6 11 9 15 18 18 19 18
22 23 23 25 27 3 2 4 4 3 2 8 5 5 5 7 5 3 5 3 5 4 4 5 5 3 4 2 2 3 4 4 6 2 6 8 3 2 2 3 3 5 14 16 14
22 22 21 27 2 4 5 4 8 2 5 5 3 5 3 3 3 2 4 5 2 8 7 3 3 5 4 5 6 5 7 7 4 3 2 3 2 6 8 10 11 10 13 13 14
23 20 18 11 5 2 5 9 5 6 5 2 2 0 2 5 5 1 0 4 4 4 6 7 2 5 5 10 6 10 5 8 5 3 3 3 5 4 8 11 18 20 13 13 13
22 18 16 2 2 7 8 7 5 6 3 3 2 2 4 3 1 2 4 7 2 4 2 5 2 3 6 4 9 7 4 6 5 4 3 4 6 5 7 21 17 16 16 16 14
22 17 5 2 4 5 5 5 6 6 7 9 4 1 4 1 2 4 6 11 5 4 4 5 4 6 6 3 4 5 7 3 3 3 6 5 3 3 10 11 16 19 20 20 17
25 15 5 5 3 5 4 7 11 5 4 4 5 1 5 2 7 8 5 7 8 6 5 3 3 7 8 2 1 3 7 7 6 5 4 6 5 1 6 8 10 13 14 13 16
18 2 1 4 5 3 6 8 1 3 5 7 4 8 7 7 5 7 5 5 6 5 6 3 2 5 4 6 2 4 5 0 7 4 4 2 3 6 23 15 14 14 12 17 20
3 3 4 5 4 5 7 4 3 5 5 5 5 5 7 8 5 6 5 5 5 9 1 1 2 3 6 7 8 8 2 4 4 5 3 4 5 3 18 21 21 19 15 11 15
4 5 4 5 4 7 5 2 3 5 4 6 6 5 2 3 5 4 2 4 5 4 8 2 4 7 4 8 7 8 7 5 3 4 6 3 2 4 10 11 15 20 24 7 14
3 6 5 4 6 2 3 2 3 8 7 6 4 4 4 4 6 5 4 2 5 2 4 5 4 4 3 7 10 16 5 4 4 5 2 3 1 7 8 10 14 20 22 22 19
4 2 6 6 4 4 5 6 7 7 7 5 8 6 6 4 6 4 4 7 8 4 2 3 4 4 5 7 9 8 8 5 3 2 2 1 2 8 9 10 14 19 18 19 19
4 5 6 6 2 6 5 5 3 7 6 5 4 5 7 10 10 5 5 6 6 5 11 9 4 6 6 3 2 4 5 6 5 4 3 3 5 7 12 11 13 13 17 17 16
4 0 3 4 6 5 5 4 4 3 4 8 8 8 3 6 5 5 6 6 5 10 6 7 4 2 3 2 2 1 2 3 1 3 3 5 4 10 10 12 11 9 11 16 16
4 3 5 2 2 6 6 3 2 3 4 3 6 5 7 5 4 1 1 1 1 6 4 4 2 2 2 3 3 2 4 4 2 3 3 4 3 10 10 12 12 13 13 13 13
2 2 5 5 3 4 1 1 2 0 5 3 3 4 4 1 4 4 4 3 3 4 3 3 5 3 3 4 2 4 5 6 7 9 4 5 4 7 11 10 13 12 12 13 12
Wind_Direction
345 343 342 340 339 339 337 336 334 332 327 320 316 311 309 314 314 157 235 216 184 228 150 132 138 208 134 180 220 238 283 281 267 150 122 140 311 342 313 150 124 342 136 139 136
343 340 339 337 337 338 336 334 331 330 329 321 316 307 303 317 304 253 241 199 208 184 135 152 176 158 161 189 189 191 177 229 282 106 149 151 122 335 356 171 36 94 118 135 133
340 337 336 335 335 335 333 332 330 328 328 324 314 305 291 308 328 247 185 188 194 184 158 148 131 149 175 171 210 206 210 188 125 119 143 144 144 139 220 263 86 151 145 144 146
337 335 334 333 332 332 330 329 328 326 324 323 318 289 272 180 171 2 151 171 184 161 155 128 114 140 187 203 204 259 224 178 143 154 162 163 134 162 194 118 164 171 157 147 156
333 332 332 331 330 328 325 325 323 321 317 311 307 246 217 296 250 140 146 156 132 148 169 149 140 159 191 201 195 238 269 182 173 162 156 144 157 170 134 206 170 160 163 159 159
332 330 330 329 328 325 322 319 317 313 305 300 271 166 221 269 194 136 138 143 154 146 175 163 181 186 204 250 181 230 234 253 173 170 155 159 151 183 163 177 153 165 170 173 170
331 329 328 328 326 323 319 314 310 303 292 281 214 206 253 238 52 141 144 180 169 166 160 208 157 118 39 300 316 252 268 309 149 154 162 140 97 211 154 170 181 177 172 171 179
330 328 326 325 324 320 317 311 305 292 268 246 173 214 247 221 155 167 180 152 170 175 124 176 109 318 200 286 326 300 52 35 187 156 168 166 233 203 161 164 169 175 173 177 180
327 326 324 323 320 319 316 312 306 267 177 174 134 168 270 306 181 196 161 191 138 129 267 170 141 200 299 144 13 3 152 56 118 213 159 186 248 217 165 149 169 181 176 180 177
327 325 322 320 319 321 322 314 215 105 157 183 245 326 271 292 229 159 198 168 146 124 153 171 89 117 29 80 202 180 44 20 72 170 197 201 250 271 154 181 178 184 189 183 185
325 324 322 320 318 321 340 39 23 17 199 200 189 259 267 294 297 166 162 117 101 105 138 204 107 193 217 196 177 141 177 282 224 202 199 209 215 217 161 182 181 184 199 194 194
323 323 322 321 318 320 144 30 245 184 308 235 232 250 261 160 303 272 104 118 127 180 133 49 192 221 240 210 198 263 339 294 291 274 168 315 276 206 173 194 187 192 197 199 193
321 322 327 324 318 308 302 244 299 173 107 297 212 211 225 131 223 215 119 136 126 148 138 138 218 184 169 278 260 260 179 231 221 9 27 115 43 175 163 281 236 227 216 212 205
319 321 330 329 354 324 282 318 316 133 65 286 249 269 161 181 39 165 185 128 74 181 150 194 238 200 242 240 156 263 197 234 245 72 249 147 239 244 213 236 260 233 220 219 208
317 321 328 336 292 316 309 318 335 58 75 191 207 42 90 124 164 265 105 59 144 130 100 244 217 179 204 227 155 235 212 192 201 148 79 304 86 259 175 233 240 235 220 224 223
316 316 329 107 254 251 298 319 52 41 77 16 102 149 90 23 232 105 58 31 93 118 338 224 256 136 214 230 187 236 128 52 62 105 58 252 120 289 187 222 238 236 223 218 211
317 307 297 287 243 304 318 43 44 65 324 344 340 77 80 44 26 45 74 49 37 55 2 2 14 324 34 46 18 91 67 352 26 49 194 242 73 250 269 284 245 228 208 209 207
323 308 171 216 247 5 36 54 59 328 326 328 316 28 76 108 7 23 54 30 4 38 67 57 11 6 331 6 308 325 144 151 178 170 188 235 204 125 336 5 344 312 244 224 216
327 337 339 274 194 117 72 56 191 304 286 323 336 49 1 1 102 75 58 33 20 356 107 56 120 337 333 43 56 309 51 231 96 17 72 259 305 284 351 355 357 341 314 216 200
35 12 299 320 154 63 71 98 81 336 339 30 69 23 35 345 60 70 31 312 350 19 113 94 43 1 305 13 29 79 334 62 10 128 154 294 77 344 350 345 344 357 329 262 210
46 39 267 37 45 40 91 101 50 333 47 47 23 37 36 6 50 71 55 342 350 358 53 44 62 303 42 20 335 9 13 5 108 99 151 162 17 53 1 349 7 4 5 314 196
54 45 310 60 47 10 42 37 42 352 8 33 67 55 41 6 46 65 92 79 334 10 52 341 119 49 35 309 110 77 60 74 88 325 19 114 182 358 336 355 41 27 20 23 36
77 283 323 66 84 9 335 29 61 34 20 38 13 16 26 34 89 63 76 4 11 62 88 328 19 45 20 343 11 39 355 19 109 60 26 97 277 15 359 343 25 50 30 31 29
78 32 339 38 55 104 75 5 89 26 51 53 19 43 46 21 19 56 34 38 10 62 65 83 64 129 165 197 200 7 4 5 91 73 295 125 306 1 3 358 11 23 55 37 36
34 213 190 346 360 66 66 11 51 33 37 24 25 36 76 59 35 42 10 3 9 359 32 88 104 119 166 208 96 279 293 293 164 205 137 265 63 354 349 4 354 3 25 57 28
92 73 10 47 342 36 17 350 51 357 50 16 91 51 58 92 132 106 62 359 314 355 49 21 161 76 0 29 59 83 24 60 53 309 219 186 81 351 44 18 1 7 13 31 33
324 36 102 316 21 74 268 298 351 92 14 72 119 106 63 133 194 210 192 179 67 58 56 53 123 89 289 0 76 22 341 105 101 38 340 58 48 353 44 24 10 351 1 12 25